CW7221 Weather Reports


time (UTC)temp
C
wind
direction
speed
KPH
gust
KPH
rain 1hr
cm
rain 24hr
cm
rain mn
cm
humidity
%
barometer
mb
20260506202521 17 217 1.6 4.8 0.00 0.61 0.61 89 1007.0
20260506202000 17 191 1.6 9.7 0.00 0.61 0.61 89 1007.1
20260506201500 17 199 3.2 9.7 0.00 0.61 0.61 89 1007.0
20260506201000 17 209 3.2 9.7 0.00 0.61 0.61 89 1007.0
20260506200500 17 202 3.2 12.9 0.00 0.61 0.61 89 1007.1
20260506200022 17 198 4.8 12.9 0.00 0.61 0.61 90 1007.0
20260506195500 17 195 4.8 11.3 0.00 0.61 0.61 90 1007.1
20260506195022 17 198 4.8 11.3 0.00 0.61 0.61 90 1007.3
20260506194500 17 192 4.8 11.3 0.00 0.61 0.61 90 1007.2
20260506194000 17 189 3.2 8.0 0.00 0.61 0.61 91 1007.2
20260506193522 17 210 3.2 8.0 0.00 0.61 0.61 91 1007.2
20260506193022 17 211 3.2 8.0 0.00 0.61 0.61 91 1007.3
20260506192522 16 191 3.2 8.0 0.00 0.61 0.61 91 1007.4
20260506192001 16 176 3.2 8.0 0.00 0.61 0.61 92 1007.4
20260506191501 16 192 3.2 8.0 0.00 0.61 0.61 92 1007.4
20260506191001 16 202 3.2 8.0 0.03 0.61 0.61 91 1007.5
20260506190501 16 201 3.2 9.7 0.03 0.61 0.61 92 1007.6
20260506190001 16 205 4.8 9.7 0.03 0.61 0.61 91 1007.7
20260506185500 16 195 4.8 9.7 0.05 0.61 0.61 91 1007.8
20260506185001 16 189 3.2 9.7 0.05 0.61 0.61 91 1007.8
20260506184522 16 193 3.2 12.9 0.05 0.61 0.61 91 1007.8
20260506184001 16 184 3.2 12.9 0.08 0.61 0.61 91 1008.0
20260506183501 16 195 3.2 9.7 0.08 0.61 0.61 91 1007.9
20260506183001 16 198 3.2 9.7 0.08 0.61 0.61 91 1008.0
20260506182501 16 185 3.2 6.4 0.10 0.61 0.61 91 1008.1
20260506182001 16 184 3.2 8.0 0.10 0.61 0.61 91 1008.1
20260506181522 16 185 3.2 8.0 0.13 0.61 0.61 91 1008.0
20260506181001 16 191 4.8 9.7 0.10 0.58 0.58 91 1008.0
20260506180522 16 197 4.8 11.3 0.13 0.58 0.58 91 1008.1
20260506180022 16 194 4.8 11.3 0.13 0.58 0.58 91 1008.1
20260506175501 16 187 3.2 8.0 0.15 0.56 0.56 91 1008.1
20260506175001 16 192 3.2 8.0 0.15 0.56 0.56 90 1008.2
20260506174523 16 191 3.2 8.0 0.18 0.56 0.56 90 1008.2
20260506174023 16 181 3.2 8.0 0.15 0.53 0.53 90 1008.2
20260506173522 16 185 3.2 11.3 0.15 0.53 0.53 90 1008.1
20260506173023 16 188 3.2 11.3 0.15 0.53 0.53 90 1008.1
20260506172501 16 196 4.8 11.3 0.13 0.51 0.51 90 1008.1
20260506172022 16 197 4.8 11.3 0.13 0.51 0.51 90 1008.2
20260506171523 16 195 4.8 11.3 0.10 0.48 0.48 90 1008.2
20260506171001 16 198 3.2 9.7 0.10 0.48 0.48 89 1008.2
20260506170501 16 205 4.8 14.5 0.10 0.46 0.46 89 1008.3
20260506170002 16 205 4.8 14.5 0.10 0.46 0.46 89 1008.4
20260506165502 16 195 4.8 11.3 0.05 0.41 0.41 89 1008.3
20260506165002 16 196 4.8 14.5 0.05 0.41 0.41 89 1008.3
20260506164502 16 195 4.8 14.5 0.05 0.38 0.38 89 1008.3
20260506164002 16 199 6.4 14.5 0.08 0.38 0.38 89 1008.3
20260506163502 16 200 6.4 14.5 0.10 0.38 0.38 89 1008.3
20260506163002 16 197 6.4 12.9 0.13 0.38 0.38 89 1008.3
20260506162502 16 200 6.4 14.5 0.18 0.38 0.38 89 1008.4
20260506162002 16 199 6.4 14.5 0.23 0.38 0.38 89 1008.3
20260506161501 16 186 6.4 14.5 0.23 0.38 0.38 89 1008.2
20260506161002 16 183 6.4 16.1 0.23 0.38 0.38 89 1008.2
20260506160523 16 183 4.8 16.1 0.20 0.36 0.36 89 1008.0
20260506160002 16 173 4.8 11.3 0.20 0.36 0.36 89 1008.2
20260506155502 16 172 3.2 8.0 0.20 0.36 0.36 89 1008.3
20260506155002 16 180 3.2 14.5 0.20 0.36 0.36 89 1008.6
20260506154523 16 182 4.8 14.5 0.20 0.33 0.33 89 1008.9
20260506154002 16 191 6.4 16.1 0.18 0.30 0.30 88 1009.0
20260506153502 16 201 6.4 16.1 0.18 0.28 0.28 88 1009.3
20260506153002 17 203 6.4 19.3 0.18 0.25 0.25 88 1009.4
20260506152502 17 206 6.4 19.3 0.15 0.20 0.20 87 1009.4
20260506152002 17 205 8.0 14.5 0.10 0.15 0.15 87 1009.4
20260506151502 17 195 6.4 14.5 0.13 0.15 0.15 86 1009.5
20260506151002 17 187 6.4 14.5 0.13 0.15 0.15 86 1009.3
20260506150502 17 192 6.4 14.5 0.15 0.15 0.15 86 1009.2
20260506150003 17 205 6.4 12.9 0.15 0.15 0.15 86 1009.0
20260506145524 17 203 4.8 12.9 0.15 0.15 0.15 86 1009.0
20260506145002 17 188 3.2 11.3 0.15 0.15 0.15 86 1009.1
20260506144524 17 169 3.2 8.0 0.13 0.13 0.13 86 1009.1
20260506144003 17 164 3.2 6.4 0.13 0.13 0.13 86 1009.0
20260506143502 17 177 3.2 8.0 0.10 0.10 0.10 85 1009.0
20260506143003 17 189 3.2 12.9 0.08 0.08 0.08 85 1009.1
20260506142502 17 197 4.8 12.9 0.05 0.05 0.05 84 1009.3
20260506142003 17 201 4.8 12.9 0.05 0.05 0.05 84 1009.4
20260506141524 17 197 4.8 12.9 0.03 0.03 0.03 84 1009.3
20260506141003 17 202 4.8 14.5 0.03 0.03 0.03 83 1009.3
20260506140503 17 205 6.4 14.5 0.00 0.00 0.00 83 1009.2
20260506140003 18 206 4.8 14.5 0.00 0.00 0.00 82 1009.3
20260506135503 18 202 3.2 9.7 0.00 0.00 0.00 83 1009.1
20260506135003 18 193 4.8 9.7 0.00 0.00 0.00 83 1008.9
20260506134503 18 201 4.8 11.3 0.00 0.00 0.00 82 1009.1
20260506134003 18 201 4.8 11.3 0.00 0.00 0.00 82 1009.2
20260506133503 18 195 4.8 9.7 0.00 0.00 0.00 82 1009.4
20260506133003 18 201 4.8 11.3 0.00 0.00 0.00 82 1009.5
20260506132503 18 210 4.8 11.3 0.00 0.00 0.00 81 1009.5
20260506132003 18 204 4.8 9.7 0.00 0.00 0.00 81 1009.4
20260506131503 18 190 3.2 9.7 0.00 0.00 0.00 81 1009.4
20260506131003 18 189 3.2 9.7 0.00 0.00 0.00 80 1009.5
20260506130503 18 200 4.8 17.7 0.00 0.00 0.00 80 1009.5
20260506130025 18 204 6.4 17.7 0.00 0.00 0.00 79 1009.5
20260506125524 18 203 4.8 17.7 0.00 0.00 0.00 79 1009.5
20260506125003 18 195 4.8 11.3 0.00 0.00 0.00 78 1009.6
20260506124503 19 205 6.4 19.3 0.00 0.00 0.00 77 1009.5
20260506124004 19 208 8.0 20.9 0.00 0.00 0.00 76 1009.4
20260506123525 19 202 8.0 20.9 0.00 0.00 0.00 75 1009.3
20260506122959 19 199 8.0 19.3 0.00 0.00 0.00 75 1009.4
20260506122500 19 201 8.0 22.5 0.00 0.00 0.00 74 1009.2
20260506122000 19 208 6.4 22.5 0.00 0.00 0.00 74 1009.1
20260506121500 19 200 6.4 16.1 0.00 0.00 0.00 74 1009.1
20260506121000 19 195 6.4 14.5 0.00 0.00 0.00 73 1009.1
20260506120521 20 202 6.4 17.7 0.00 0.00 0.00 73 1009.1
20260506120000 19 193 6.4 17.7 0.00 0.00 0.00 73 1009.1
20260506115522 19 184 6.4 12.9 0.00 0.00 0.00 73 1009.0
20260506115000 19 197 6.4 12.9 0.00 0.00 0.00 73 1009.1
20260506114500 20 199 6.4 17.7 0.00 0.00 0.00 73 1009.0
20260506114000 19 193 6.4 17.7 0.00 0.00 0.00 73 1009.0
20260506113500 19 191 4.8 14.5 0.00 0.00 0.00 73 1009.0
20260506113000 19 200 4.8 16.1 0.00 0.00 0.00 73 1009.1
20260506112500 20 208 6.4 17.7 0.00 0.00 0.00 73 1009.1
20260506112021 20 205 6.4 20.9 0.00 0.00 0.00 73 1009.0
20260506111500 20 202 6.4 20.9 0.00 0.00 0.00 73 1009.1
20260506111000 20 203 6.4 16.1 0.00 0.00 0.00 73 1009.2
20260506110500 20 203 8.0 16.1 0.00 0.00 0.00 73 1009.0
20260506110000 20 201 8.0 16.1 0.00 0.00 0.00 73 1008.9
20260506105500 19 194 6.4 17.7 0.00 0.00 0.00 73 1008.7
20260506105000 19 192 6.4 17.7 0.00 0.00 0.00 73 1008.6
20260506104500 19 195 6.4 14.5 0.00 0.00 0.00 73 1008.5
20260506104000 19 202 6.4 14.5 0.00 0.00 0.00 73 1008.5
20260506103500 19 204 6.4 14.5 0.00 0.00 0.00 73 1008.5
20260506103000 19 201 6.4 14.5 0.00 0.00 0.00 73 1008.5
20260506102500 19 200 4.8 16.1 0.00 0.00 0.00 73 1008.4
20260506102000 19 208 6.4 16.1 0.00 0.00 0.00 73 1008.4
20260506101500 19 210 6.4 14.5 0.00 0.00 0.00 73 1008.5
20260506101000 19 195 6.4 14.5 0.00 0.00 0.00 73 1008.5
20260506100522 19 193 6.4 17.7 0.00 0.00 0.00 73 1008.4
20260506100000 19 202 4.8 17.7 0.00 0.00 0.00 73 1008.5
20260506095501 19 196 4.8 9.7 0.00 0.00 0.00 73 1008.5
20260506095001 19 203 6.4 12.9 0.00 0.00 0.00 72 1008.8
20260506094501 19 202 6.4 12.9 0.00 0.00 0.00 72 1008.7
20260506094022 19 186 4.8 11.3 0.00 0.00 0.00 72 1008.7
20260506093501 19 193 4.8 12.9 0.00 0.00 0.00 72 1008.5
20260506093001 19 202 4.8 12.9 0.00 0.00 0.00 72 1008.5
20260506092501 19 203 4.8 16.1 0.00 0.00 0.00 71 1008.5
20260506092001 20 202 6.4 16.1 0.00 0.00 0.00 71 1008.6
20260506091501 20 200 4.8 12.9 0.00 0.00 0.00 71 1008.5
20260506091001 19 196 4.8 11.3 0.00 0.00 0.00 70 1008.5
20260506090501 20 200 4.8 16.1 0.00 0.00 0.00 70 1008.5
20260506090001 20 211 6.4 16.1 0.00 0.00 0.00 69 1008.5
20260506085501 20 209 4.8 14.5 0.00 0.00 0.00 69 1008.6
20260506085001 20 195 3.2 9.7 0.00 0.00 0.00 69 1008.7
20260506084501 20 198 4.8 9.7 0.00 0.00 0.00 68 1008.7
20260506084001 20 195 4.8 12.9 0.00 0.00 0.00 68 1008.7
20260506083501 20 196 4.8 12.9 0.00 0.05 0.00 68 1008.8
20260506083001 20 198 4.8 12.9 0.00 0.08 0.00 67 1008.7
20260506082501 20 194 3.2 8.0 0.00 0.08 0.00 67 1008.7
20260506082022 20 204 3.2 11.3 0.00 0.08 0.00 67 1008.8
20260506081501 20 207 4.8 14.5 0.00 0.08 0.00 66 1008.7
20260506081001 20 196 6.4 14.5 0.00 0.08 0.00 66 1008.8
20260506080501 20 197 6.4 19.3 0.00 0.08 0.00 65 1008.8
20260506073501 20 207 4.8 11.3 0.00 0.08 0.00 64 1008.7
20260506073001 20 208 4.8 11.3 0.00 0.08 0.00 64 1008.8
20260506072502 20 209 4.8 11.3 0.00 0.08 0.00 63 1008.8
20260506072001 20 207 4.8 12.9 0.00 0.08 0.00 63 1008.9
20260506071501 20 205 4.8 12.9 0.00 0.08 0.00 63 1008.9
20260506071002 20 212 4.8 12.9 0.00 0.08 0.00 62 1008.9
20260506070523 20 213 4.8 17.7 0.00 0.08 0.00 62 1009.0
20260506062502 20 204 4.8 9.7 0.00 0.08 0.00 61 1009.1
20260506062002 21 203 4.8 12.9 0.00 0.08 0.00 61 1009.2
20260506061523 21 199 4.8 12.9 0.00 0.08 0.00 60 1009.2
20260506061002 21 193 4.8 12.9 0.00 0.08 0.00 60 1009.2
20260506060502 21 200 4.8 14.5 0.00 0.08 0.00 60 1009.4
20260506051003 21 210 3.2 12.9 0.00 0.08 0.00 59 1009.7
20260506050502 21 203 3.2 9.7 0.00 0.08 0.00 58 1009.7
20260506045003 21 198 4.8 11.3 0.00 0.08 0.00 57 1009.8
20260506044503 21 198 4.8 11.3 0.00 0.08 0.00 57 1009.9
20260506044024 21 200 3.2 11.3 0.00 0.08 0.00 58 1009.8
20260506043503 21 196 3.2 8.0 0.00 0.08 0.00 57 1009.8
20260506043003 21 196 4.8 11.3 0.00 0.08 0.00 57 1009.8
20260506042503 21 195 4.8 11.3 0.00 0.08 0.00 56 1009.8
20260506042003 21 194 4.8 11.3 0.00 0.08 0.00 56 1009.9
20260506041503 21 199 4.8 9.7 0.00 0.08 0.00 56 1009.9
20260506041003 21 197 4.8 12.9 0.00 0.08 0.00 55 1009.8
20260506040503 21 199 4.8 12.9 0.00 0.08 0.00 55 1009.8
20260506040004 21 194 4.8 14.5 0.00 0.08 0.00 55 1009.8
20260506035503 21 189 3.2 14.5 0.00 0.08 0.08 55 1009.7
20260506035024 21 201 4.8 12.9 0.00 0.08 0.08 54 1009.7
20260506034503 22 198 4.8 12.9 0.00 0.08 0.08 54 1009.8
20260506034025 22 203 4.8 12.9 0.00 0.08 0.08 54 1009.8
20260506033503 22 204 4.8 12.9 0.00 0.08 0.08 53 1009.7
20260506033004 22 194 4.8 9.7 0.00 0.08 0.08 53 1009.7
20260506032521 22 200 4.8 12.9 0.00 0.08 0.08 52 1009.7
20260506032000 22 200 4.8 12.9 0.00 0.08 0.08 52 1009.7
20260506031459 22 188 4.8 9.7 0.00 0.08 0.08 52 1009.7
20260506031000 22 192 4.8 16.1 0.00 0.08 0.08 52 1009.6
20260506030500 22 195 6.4 16.1 0.00 0.08 0.08 51 1009.7
20260506030000 22 191 4.8 14.5 0.00 0.08 0.08 51 1009.6
20260506025500 22 194 6.4 14.5 0.00 0.08 0.08 51 1009.5
20260506025022 22 191 6.4 14.5 0.00 0.08 0.08 50 1009.5
20260506024521 23 189 6.4 16.1 0.00 0.08 0.08 51 1009.5
20260506024000 23 193 6.4 16.1 0.00 0.08 0.08 50 1009.6
20260506023500 23 194 6.4 16.1 0.00 0.08 0.08 49 1009.6
20260506023000 23 198 6.4 16.1 0.00 0.08 0.08 49 1009.7
20260506022521 23 202 6.4 16.1 0.00 0.08 0.08 49 1009.7
20260506022000 23 195 6.4 16.1 0.00 0.08 0.08 48 1009.7
20260506021500 23 193 6.4 16.1 0.00 0.08 0.08 48 1009.7
20260506021000 23 187 6.4 14.5 0.00 0.08 0.08 48 1009.7
20260506020500 23 186 4.8 9.7 0.00 0.08 0.08 48 1009.6
20260506020000 23 187 4.8 9.7 0.00 0.08 0.08 47 1009.6
20260506015521 23 187 4.8 11.3 0.00 0.08 0.08 47 1009.6
20260506015000 23 189 6.4 11.3 0.00 0.08 0.08 46 1009.6
20260506014500 23 185 6.4 9.7 0.00 0.08 0.08 46 1009.5
20260506014000 23 186 6.4 14.5 0.00 0.08 0.08 46 1009.5
20260506013500 24 196 6.4 16.1 0.00 0.08 0.08 45 1009.4
20260506013000 24 197 6.4 16.1 0.00 0.08 0.08 44 1009.4
20260506012500 24 200 8.0 17.7 0.00 0.08 0.08 44 1009.3
20260506012000 24 202 9.7 17.7 0.00 0.08 0.08 44 1009.2
20260506011522 25 200 8.0 19.3 0.00 0.08 0.08 44 1009.1
20260506011000 24 200 8.0 19.3 0.00 0.08 0.08 44 1009.1
20260506010500 25 196 8.0 17.7 0.00 0.08 0.08 44 1009.0
20260506010001 25 196 6.4 19.3 0.00 0.08 0.08 43 1008.9
20260506005500 25 200 8.0 19.3 0.00 0.08 0.08 43 1008.9
20260506005022 25 197 8.0 17.7 0.00 0.08 0.08 43 1008.8
20260506004522 25 193 8.0 17.7 0.00 0.08 0.08 43 1008.8
20260506004001 25 196 8.0 17.7 0.00 0.08 0.08 43 1008.9
20260506003501 25 196 8.0 17.7 0.00 0.08 0.08 43 1008.7
20260506003001 25 199 8.0 17.7 0.00 0.08 0.08 43 1008.6
20260506002501 25 199 6.4 17.7 0.00 0.08 0.08 43 1008.6
20260506002001 25 199 8.0 19.3 0.00 0.08 0.08 42 1008.5
20260506001501 25 200 8.0 19.3 0.00 0.08 0.08 42 1008.4
20260506001001 25 198 6.4 19.3 0.00 0.08 0.08 43 1008.5
20260506000501 25 198 6.4 19.3 0.00 0.08 0.08 43 1008.5
20260506000001 25 199 6.4 19.3 0.00 0.08 0.08 43 1008.5
20260505235522 25 196 8.0 19.3 0.00 0.08 0.08 42 1008.5
20260505235001 25 190 6.4 17.7 0.00 0.08 0.08 42 1008.5
20260505234522 25 193 8.0 17.7 0.00 0.08 0.08 42 1008.4
20260505234001 26 197 9.7 22.5 0.00 0.08 0.08 42 1008.3
20260505233501 26 196 9.7 22.5 0.00 0.08 0.08 41 1008.3
20260505233001 26 195 9.7 19.3 0.00 0.08 0.08 41 1008.3
20260505232501 26 195 8.0 17.7 0.00 0.08 0.08 41 1008.3
20260505232001 26 203 8.0 16.1 0.00 0.08 0.08 42 1008.2
20260505231501 26 207 8.0 22.5 0.00 0.08 0.08 40 1008.2
20260505231001 26 202 9.7 22.5 0.00 0.08 0.08 40 1008.2
20260505230501 26 197 9.7 27.4 0.00 0.08 0.08 40 1008.1
20260505230001 26 195 9.7 27.4 0.00 0.08 0.08 40 1008.1
20260505225501 26 197 9.7 24.1 0.00 0.08 0.08 40 1008.0
20260505225001 26 199 9.7 27.4 0.00 0.08 0.08 41 1008.1
20260505224501 26 202 9.7 27.4 0.00 0.08 0.08 40 1008.1
20260505224001 26 208 9.7 25.7 0.00 0.08 0.08 41 1008.0
20260505223501 27 202 12.9 25.7 0.00 0.08 0.08 40 1008.0
20260505223001 27 197 11.3 24.1 0.00 0.08 0.08 39 1008.0
20260505222501 27 204 9.7 22.5 0.00 0.08 0.08 39 1008.0
20260505222002 27 209 8.0 22.5 0.00 0.08 0.08 37 1007.9
20260505221502 27 203 9.7 27.4 0.00 0.08 0.08 37 1007.9
20260505221002 27 199 11.3 27.4 0.00 0.08 0.08 36 1007.8
20260505220502 27 196 11.3 27.4 0.00 0.08 0.08 37 1007.6
20260505220002 27 200 11.3 29.0 0.00 0.08 0.08 37 1007.7
20260505215502 27 202 9.7 29.0 0.00 0.08 0.08 37 1007.7
20260505215002 27 209 8.0 24.1 0.00 0.08 0.08 38 1007.8
20260505214502 27 210 9.7 25.7 0.00 0.08 0.08 37 1007.8
20260505214002 27 199 9.7 25.7 0.00 0.08 0.08 37 1007.9
20260505213502 27 201 9.7 30.6 0.00 0.08 0.08 39 1007.8
20260505213002 27 200 9.7 30.6 0.00 0.08 0.08 39 1007.7
20260505212502 27 196 11.3 20.9 0.00 0.08 0.08 40 1007.8
20260505212002 27 196 9.7 20.9 0.00 0.08 0.08 39 1007.7
20260505211502 28 194 8.0 20.9 0.00 0.08 0.08 38 1007.7
20260505211002 27 195 11.3 29.0 0.00 0.08 0.08 37 1007.7
20260505210523 27 198 11.3 29.0 0.00 0.08 0.08 36 1007.6
20260505210024 27 208 12.9 32.2 0.00 0.08 0.08 37 1007.6
20260505205502 27 211 11.3 32.2 0.00 0.08 0.08 36 1007.6
20260505205023 28 208 9.7 29.0 0.00 0.08 0.08 38 1007.6
20260505204502 28 205 9.7 24.1 0.00 0.08 0.08 37 1007.5
20260505204002 27 200 11.3 29.0 0.00 0.08 0.08 38 1007.6
20260505203502 27 202 12.9 29.0 0.00 0.08 0.08 37 1007.6
20260505203002 28 204 11.3 25.7 0.00 0.08 0.08 38 1007.6